Time,TemperatureF,DewpointF,PressureIn,WindDirection,WindDirectionDegrees,WindSpeedMPH,WindSpeedGustMPH,Humidity,HourlyPrecipIn,Conditions,Clouds,dailyrainin,SolarRadiationWatts/m^2,SoftwareType,DateUTC
2013-04-10 00:03:00,66.0,51.0,-100.00,SE,135,2.0,3.0,58,0.00,,,0.00,0.000000,,2013-04-10 04:03:00,
2013-04-10 00:33:00,61.0,49.0,-100.00,ESE,104,0.0,3.0,65,0.00,,,0.00,0.000000,,2013-04-10 04:33:00,
2013-04-10 00:43:00,61.0,49.0,-100.00,ESE,104,0.0,3.0,65,0.00,,,0.00,0.000000,,2013-04-10 04:43:00,
2013-04-10 00:53:00,61.0,49.0,-100.00,ESE,104,0.0,3.0,65,0.00,,,0.00,0.000000,,2013-04-10 04:53:00,
2013-04-10 01:03:00,61.0,49.0,-100.00,ESE,104,0.0,3.0,65,0.00,,,0.00,0.000000,,2013-04-10 05:03:00,
2013-04-10 01:33:00,60.0,50.0,-100.00,SSE,159,3.0,4.0,70,0.00,,,0.00,0.000000,,2013-04-10 05:33:00,
2013-04-10 01:43:00,60.0,50.0,-100.00,SSE,159,3.0,4.0,70,0.00,,,0.00,0.000000,,2013-04-10 05:43:00,
2013-04-10 01:53:00,60.0,50.0,-100.00,SSE,159,3.0,4.0,70,0.00,,,0.00,0.000000,,2013-04-10 05:53:00,
2013-04-10 02:03:00,60.0,50.0,-100.00,SSE,159,3.0,4.0,70,0.00,,,0.00,0.000000,,2013-04-10 06:03:00,
2013-04-10 02:32:00,57.0,51.0,-100.00,SE,133,4.0,5.0,80,0.00,,,0.00,0.000000,,2013-04-10 06:32:00,
2013-04-10 02:42:00,57.0,51.0,-100.00,SE,133,4.0,5.0,80,0.00,,,0.00,0.000000,,2013-04-10 06:42:00,
2013-04-10 02:52:00,57.0,51.0,-100.00,SE,133,4.0,5.0,80,0.00,,,0.00,0.000000,,2013-04-10 06:52:00,
2013-04-10 03:02:00,57.0,51.0,-100.00,SE,133,4.0,5.0,80,0.00,,,0.00,0.000000,,2013-04-10 07:02:00,
2013-04-10 03:33:00,55.0,51.0,-100.00,WNW,282,0.0,5.0,85,0.00,,,0.00,0.000000,,2013-04-10 07:33:00,
2013-04-10 03:43:00,55.0,51.0,-100.00,WNW,282,0.0,5.0,85,0.00,,,0.00,0.000000,,2013-04-10 07:43:00,
2013-04-10 03:52:00,55.0,51.0,-100.00,WNW,282,0.0,5.0,85,0.00,,,0.00,0.000000,,2013-04-10 07:52:00,
2013-04-10 04:02:00,55.0,51.0,-100.00,WNW,282,0.0,5.0,85,0.00,,,0.00,0.000000,,2013-04-10 08:02:00,
2013-04-10 04:32:00,54.0,50.0,-100.00,SE,125,1.0,2.0,87,0.00,,,0.00,0.000000,,2013-04-10 08:32:00,
2013-04-10 04:43:00,54.0,50.0,-100.00,SE,125,1.0,2.0,87,0.00,,,0.00,0.000000,,2013-04-10 08:43:00,
2013-04-10 04:52:00,54.0,50.0,-100.00,SE,125,1.0,2.0,87,0.00,,,0.00,0.000000,,2013-04-10 08:52:00,
2013-04-10 05:02:00,54.0,50.0,-100.00,SE,125,1.0,2.0,87,0.00,,,0.00,0.000000,,2013-04-10 09:02:00,
2013-04-10 05:33:00,54.0,51.0,-100.00,SE,139,3.0,4.0,90,0.00,,,0.00,0.000000,,2013-04-10 09:33:00,
2013-04-10 05:43:00,54.0,51.0,-100.00,SE,139,3.0,4.0,90,0.00,,,0.00,0.000000,,2013-04-10 09:43:00,
2013-04-10 05:53:00,54.0,51.0,-100.00,SE,139,3.0,4.0,90,0.00,,,0.00,0.000000,,2013-04-10 09:53:00,
2013-04-10 06:03:00,54.0,51.0,-100.00,SE,139,3.0,4.0,90,0.00,,,0.00,0.000000,,2013-04-10 10:03:00,
2013-04-10 06:33:00,53.0,50.0,-100.00,SSE,151,2.0,5.0,90,0.00,,,0.00,0.000000,,2013-04-10 10:33:00,
2013-04-10 06:43:00,53.0,50.0,-100.00,SSE,151,2.0,5.0,90,0.00,,,0.00,0.000000,,2013-04-10 10:43:00,
2013-04-10 06:53:00,53.0,50.0,-100.00,SSE,151,2.0,5.0,90,0.00,,,0.00,0.000000,,2013-04-10 10:53:00,
2013-04-10 07:03:00,53.0,50.0,-100.00,SSE,151,2.0,5.0,90,0.00,,,0.00,0.000000,,2013-04-10 11:03:00,
2013-04-10 09:33:00,61.0,56.0,-100.00,SE,144,2.0,4.0,84,-99.99,,,0.00,251.000000,,2013-04-10 13:33:00,
2013-04-10 09:43:00,61.0,56.0,-100.00,SE,144,2.0,4.0,84,-99.99,,,0.00,251.000000,,2013-04-10 13:43:00,
2013-04-10 09:53:00,61.0,56.0,-100.00,SE,144,2.0,4.0,84,-99.99,,,0.00,251.000000,,2013-04-10 13:53:00,
2013-04-10 10:02:00,61.0,56.0,-100.00,SE,144,2.0,4.0,84,-99.99,,,0.00,251.000000,,2013-04-10 14:02:00,
2013-04-10 10:33:00,67.0,56.0,-100.00,ENE,73,1.0,5.0,68,0.00,,,0.00,334.000000,,2013-04-10 14:33:00,
2013-04-10 10:42:00,67.0,56.0,-100.00,ENE,73,1.0,5.0,68,0.00,,,0.00,334.000000,,2013-04-10 14:42:00,
2013-04-10 10:52:00,67.0,56.0,-100.00,ENE,73,1.0,5.0,68,0.00,,,0.00,334.000000,,2013-04-10 14:52:00,
2013-04-10 11:03:00,67.0,56.0,-100.00,ENE,73,1.0,5.0,68,0.00,,,0.00,334.000000,,2013-04-10 15:03:00,
2013-04-10 12:33:00,77.0,55.0,-100.00,SSW,195,6.0,15.0,47,-99.99,,,0.00,897.000000,,2013-04-10 16:33:00,
2013-04-10 12:43:00,77.0,55.0,-100.00,SSW,195,6.0,15.0,47,-99.99,,,0.00,897.000000,,2013-04-10 16:43:00,
2013-04-10 12:53:00,77.0,55.0,-100.00,SSW,195,6.0,15.0,47,-99.99,,,0.00,897.000000,,2013-04-10 16:53:00,
2013-04-10 13:03:00,77.0,55.0,-100.00,SSW,195,6.0,15.0,47,-99.99,,,0.00,897.000000,,2013-04-10 17:03:00,
2013-04-10 13:34:00,80.0,55.0,-100.00,South,176,4.0,15.0,42,0.00,,,0.00,875.000000,,2013-04-10 17:34:00,
2013-04-10 13:43:00,80.0,55.0,-100.00,South,176,4.0,15.0,42,0.00,,,0.00,875.000000,,2013-04-10 17:43:00,
2013-04-10 13:53:00,80.0,55.0,-100.00,South,176,4.0,15.0,42,0.00,,,0.00,875.000000,,2013-04-10 17:53:00,
2013-04-10 14:03:00,80.0,55.0,-100.00,South,176,4.0,15.0,42,0.00,,,0.00,875.000000,,2013-04-10 18:03:00,
2013-04-10 14:33:00,81.0,52.0,-100.00,SW,218,8.0,14.0,37,0.00,,,0.00,967.000000,,2013-04-10 18:33:00,
2013-04-10 14:43:00,81.0,52.0,-100.00,SW,218,8.0,14.0,37,0.00,,,0.00,967.000000,,2013-04-10 18:43:00,
2013-04-10 14:53:00,81.0,52.0,-100.00,SW,218,8.0,14.0,37,0.00,,,0.00,967.000000,,2013-04-10 18:53:00,
2013-04-10 15:03:00,81.0,52.0,-100.00,SW,218,8.0,14.0,37,0.00,,,0.00,967.000000,,2013-04-10 19:03:00,
2013-04-10 15:33:00,83.0,52.0,-100.00,South,188,6.0,16.0,35,0.00,,,0.00,946.000000,,2013-04-10 19:33:00,
2013-04-10 15:42:00,83.0,52.0,-100.00,South,188,6.0,16.0,35,0.00,,,0.00,946.000000,,2013-04-10 19:42:00,
2013-04-10 15:53:00,83.0,52.0,-100.00,South,188,6.0,16.0,35,0.00,,,0.00,946.000000,,2013-04-10 19:53:00,
2013-04-10 16:03:00,83.0,52.0,-100.00,South,188,6.0,16.0,35,0.00,,,0.00,946.000000,,2013-04-10 20:03:00,
2013-04-10 16:33:00,83.0,52.0,-100.00,NNE,32,6.0,18.0,34,0.00,,,0.00,850.000000,,2013-04-10 20:33:00,
2013-04-10 16:43:00,83.0,52.0,-100.00,NNE,32,6.0,18.0,34,0.00,,,0.00,850.000000,,2013-04-10 20:43:00,
2013-04-10 16:53:00,83.0,52.0,-100.00,NNE,32,6.0,18.0,34,0.00,,,0.00,850.000000,,2013-04-10 20:53:00,
2013-04-10 17:03:00,83.0,52.0,-100.00,NNE,32,6.0,18.0,34,0.00,,,0.00,850.000000,,2013-04-10 21:03:00,
2013-04-10 17:33:00,84.0,52.0,-100.00,SSE,155,5.0,12.0,33,0.00,,,0.00,692.000000,,2013-04-10 21:33:00,
2013-04-10 17:43:00,84.0,52.0,-100.00,SSE,155,5.0,12.0,33,0.00,,,0.00,692.000000,,2013-04-10 21:43:00,
2013-04-10 17:53:00,84.0,52.0,-100.00,SSE,155,5.0,12.0,33,0.00,,,0.00,692.000000,,2013-04-10 21:53:00,
2013-04-10 18:03:00,84.0,52.0,-100.00,SSE,155,5.0,12.0,33,0.00,,,0.00,692.000000,,2013-04-10 22:03:00,
2013-04-10 18:34:00,84.0,50.0,-100.00,South,185,7.0,16.0,31,0.00,,,0.00,524.000000,,2013-04-10 22:34:00,
2013-04-10 18:43:00,84.0,50.0,-100.00,South,185,7.0,16.0,31,0.00,,,0.00,524.000000,,2013-04-10 22:43:00,
2013-04-10 18:53:00,84.0,50.0,-100.00,South,185,7.0,16.0,31,0.00,,,0.00,524.000000,,2013-04-10 22:53:00,
2013-04-10 19:03:00,84.0,50.0,-100.00,South,185,7.0,16.0,31,0.00,,,0.00,524.000000,,2013-04-10 23:03:00,
2013-04-10 19:33:00,81.0,49.0,-100.00,South,173,7.0,11.0,33,0.00,,,0.00,249.000000,,2013-04-10 23:33:00,
2013-04-10 19:43:00,81.0,49.0,-100.00,South,173,7.0,11.0,33,0.00,,,0.00,249.000000,,2013-04-10 23:43:00,
2013-04-10 19:53:00,81.0,49.0,-100.00,South,173,7.0,11.0,33,0.00,,,0.00,249.000000,,2013-04-10 23:53:00,
2013-04-10 20:02:00,81.0,49.0,-100.00,South,173,7.0,11.0,33,0.00,,,0.00,249.000000,,2013-04-11 00:02:00,
2013-04-10 20:32:00,77.0,50.0,-100.00,SSE,161,7.0,12.0,39,0.00,,,0.00,60.000000,,2013-04-11 00:32:00,
2013-04-10 20:43:00,77.0,50.0,-100.00,SSE,161,7.0,12.0,39,0.00,,,0.00,60.000000,,2013-04-11 00:43:00,
2013-04-10 20:53:00,77.0,50.0,-100.00,SSE,161,7.0,12.0,39,0.00,,,0.00,60.000000,,2013-04-11 00:53:00,
2013-04-10 21:02:00,77.0,50.0,-100.00,SSE,161,7.0,12.0,39,0.00,,,0.00,60.000000,,2013-04-11 01:02:00,
2013-04-10 21:33:00,74.0,51.0,-100.00,SSE,166,7.0,12.0,45,0.00,,,0.00,0.000000,,2013-04-11 01:33:00,
2013-04-10 21:42:00,74.0,51.0,-100.00,SSE,166,7.0,12.0,45,0.00,,,0.00,0.000000,,2013-04-11 01:42:00,
2013-04-10 21:52:00,74.0,51.0,-100.00,SSE,166,7.0,12.0,45,0.00,,,0.00,0.000000,,2013-04-11 01:52:00,
2013-04-10 22:03:00,74.0,51.0,-100.00,SSE,166,7.0,12.0,45,0.00,,,0.00,0.000000,,2013-04-11 02:03:00,
2013-04-10 22:32:00,71.0,51.0,-100.00,SSE,150,4.0,10.0,50,0.00,,,0.00,0.000000,,2013-04-11 02:32:00,
2013-04-10 22:42:00,71.0,51.0,-100.00,SSE,150,4.0,10.0,50,0.00,,,0.00,0.000000,,2013-04-11 02:42:00,
2013-04-10 22:53:00,71.0,51.0,-100.00,SSE,150,4.0,10.0,50,0.00,,,0.00,0.000000,,2013-04-11 02:53:00,
2013-04-10 23:02:00,71.0,51.0,-100.00,SSE,150,4.0,10.0,50,0.00,,,0.00,0.000000,,2013-04-11 03:02:00,
2013-04-10 23:33:00,70.0,53.0,-100.00,SE,134,4.0,9.0,54,0.00,,,0.00,0.000000,,2013-04-11 03:33:00,
2013-04-10 23:43:00,70.0,53.0,-100.00,SE,134,4.0,9.0,54,0.00,,,0.00,0.000000,,2013-04-11 03:43:00,
2013-04-10 23:54:00,70.0,53.0,-100.00,SE,134,4.0,9.0,54,0.00,,,0.00,0.000000,,2013-04-11 03:54:00,